Regional Weather Roundup
Issued by NWS

Home | Current Version | Previous Version | Text Only | Print | Product List | Glossary On
Versions: 1 2 3 4 5 6 7 8 9 10 11 12 13 14 15 16 17 18 19 20 21 22 23 24 25 26 27 28 29 30 31 32 33 34 35 36 37 38 39 40 41 42 43 44 45 46 47 48 49 50
000
ASUS45 KREV 310010
RWRNV
NEVADA REGIONAL WEATHER ROUNDUP
NATIONAL WEATHER SERVICE RENO NV
500 PM PDT SUN AUG 30 2015

NOTE: "FAIR" INDICATES FEW OR NO CLOUDS BELOW 12,000 FEET WITH NO
SIGNIFICANT WEATHER AND/OR OBSTRUCTIONS TO VISIBILITY.

NVZ001-003-004-310100-
WESTERN NEVADA

CITY           SKY/WX    TMP DP  RH WIND       PRES   REMARKS
RENO           MOSUNNY   83  26  12 NW20      30.01F
6HR MIN TEMP:  75; 6HR MAX TEMP:  85;

CARSON CITY    FAIR      79  27  14 W17G28    30.04F
MINDEN         FAIR      81  36  19 W20G29    30.03F
SLIDE MTN        N/A     57  32  38 W14         N/A
PYRAMID LAKE     N/A     79 N/A N/A N5          N/A
FALLON         MOSUNNY   88  34  14 NE9       29.95F
6HR MIN TEMP:  75; 6HR MAX TEMP:  88;

LOVELOCK       SUNNY     85  32  15 W18       29.97F
6HR MIN TEMP:  73; 6HR MAX TEMP:  86;

HAWTHORNE      SUNNY     90  32  12 NW13      29.94F
$$

NVZ002-CAZ072-073-310100-
NORTHERN AND CENTRAL SIERRA

CITY           SKY/WX    TMP DP  RH WIND       PRES   REMARKS
S. LAKE TAHOE  SUNNY     73  35  25 VRB7G18   30.15F
6HR MIN TEMP:  70; 6HR MAX TEMP:  75;

TRUCKEE        MOSUNNY   72  25  17 SW12      30.16S
                   6HR MAX TEMP:  73;

SQUAW VLY 8000   N/A     59  30  33 S7          N/A
SUSANVILLE     SUNNY     81  18   9 W10       30.03F
BLUE CANYON    SUNNY     68  32  26 CALM      30.16F
MAMMOTH LAKES  FAIR      79  21  11 NW15      30.16F
BRIDGEPORT     FAIR      77  30  17 S12G18    30.13F
$$

NVZ030-031-036-310100-
NORTHERN NEVADA

CITY           SKY/WX    TMP DP  RH WIND       PRES   REMARKS
ELKO           MOSUNNY   81  27  14 W10G21    30.02F
6HR MIN TEMP:  76; 6HR MAX TEMP:  84;

WINNEMUCCA     SUNNY     80  16   9 W14       30.02F
6HR MIN TEMP:  71; 6HR MAX TEMP:  82;

WENDOVER       MOSUNNY   84  39  20 SE5       29.92F
$$

NVZ035-037-310100-
CENTRAL NEVADA

CITY           SKY/WX    TMP DP  RH WIND       PRES   REMARKS
ELY            MOSUNNY   82  27  13 S9        30.04F
6HR MIN TEMP:  80; 6HR MAX TEMP:  87;

EUREKA           N/A     82  26  13 CALM      30.03F
6HR MIN TEMP:  73; 6HR MAX TEMP:  85;

$$

NVZ013-014-310100-
SOUTH CENTRAL NEVADA

CITY           SKY/WX    TMP DP  RH WIND       PRES   REMARKS
TONOPAH        SUNNY     86  30  13 NW7       30.02F
6HR MIN TEMP:  79; 6HR MAX TEMP:  88;

$$

NVZ017-020-022-310100-
SOUTHERN NEVADA

CITY           SKY/WX    TMP DP  RH WIND       PRES   REMARKS
LAS VEGAS      PTSUNNY  100  32   9 SW17G24   29.74F
6HR MIN TEMP:  96; 6HR MAX TEMP: 101;

N. LAS VEGAS   PTSUNNY  100  35  10 SW17      29.76F
6HR MIN TEMP:  94; 6HR MAX TEMP: 101;

NELLIS AFB     PTSUNNY  100  35  10 SW20G26   29.73F
6HR MIN TEMP:  97; 6HR MAX TEMP: 102;

HENDERSON      PTSUNNY   99  42  14 SW18G25   29.81F
MERCURY        SUNNY     94  36  13 SW14G29   29.86F
6HR MIN TEMP:  90; 6HR MAX TEMP:  96;

$$



USA.gov is the U.S. government's official web portal to all federal, state and local government web resources and services.